Regional Weather Roundup
Issued by NWS

Home | Current Version | Previous Version | Graphics & Text | Print | Product List | Glossary On
Versions: 1 2 3 4 5 6 7 8 9 10 11 12 13 14 15 16 17 18 19 20 21 22 23 24 25 26 27 28 29 30 31 32 33 34 35 36 37 38 39 40 41 42 43 44 45 46 47 48 49 50
000
ASUS45 KABQ 231601
RWRNM
NEW MEXICO REGIONAL WEATHER ROUNDUP
NATIONAL WEATHER SERVICE ALBUQUERQUE NM
1000 AM MDT WED AUG 23 2017

NOTE: "FAIR" MEANS FEW OR NO CLOUDS BELOW 12,000 FEET AGL WITH NO
       SIGNIFICANT WEATHER OR OBSTRUCTIONS TO VISION.

      THIS PRODUCT IS RELEASED AS TWO VERSIONS.  ONE VERSION NEAR
      THE TOP OF THE HOUR CONTAINING PRELIMINARY DATA FROM ALBUQUERQUE
      AND OTHER STATIONS.  A FINAL VERSION WITH ADDITIONAL DATA IS
      ISSUED ABOUT 10 MINUTES AFTER THE HOUR.

NMZ501-503-504-510>518-231700-
NORTHWEST PLATEAU/NORTHCENTRAL MOUNTAINS

CITY           SKY/WX    TMP DP  RH WIND       PRES   REMARKS
FARMINGTON     FAIR      74  51  44 E8        30.28F
LOS ALAMOS     FAIR      64  51  62 NE5       30.43S
SANTA FE       FAIR      70  55  59 N10       30.36S
TAOS           FAIR      63  51  65 NW5       30.44F
ANGEL FIRE     FAIR      53  52  96 CALM      30.49F

$$
NMZ402-403-502-505>509-231700-
WESTCENTRAL MOUNTAINS/SOUTHWEST MOUNTAINS

CITY           SKY/WX    TMP DP  RH WIND       PRES   REMARKS
GALLUP         CLOUDY    71  54  54 NE6       30.34S
GRANTS         FAIR      71  56  58 S10       30.38S
SILVER CITY    FAIR      77  58  51 E7        30.29S

$$
NMZ407-409-411-412-231700-
SOUTHERN DESERTS

CITY           SKY/WX    TMP DP  RH WIND       PRES   REMARKS
DEMING         FAIR      81  62  52 E13       30.21R
LAS CRUCES     FAIR      81  62  52 E5        30.22F
HOLLOMAN AFB   FAIR      79  68  68 SE3       30.21F
ALAMOGORDO     FAIR      75  64  69 S5        30.21F
T OR C         FAIR      78  59  51 NE7       30.24F

$$
NMZ519>523-231700-
CENTRAL VALLEYS/CENTRAL HIGHLANDS

CITY           SKY/WX    TMP DP  RH WIND       PRES   REMARKS
ALBUQUERQUE    FAIR      72  58  61 CALM      30.31S
DOUBLE EAGLE   PTSUNNY  N/A N/A N/A CALM      30.34R
CLINES CORNERS FAIR      68  55  63 W5        30.40S
BELEN          FAIR      73  56  57 W3        30.30S
SOCORRO        FAIR      75  56  52 N6        30.27F

$$
NMZ524>526-539-540-231700-
SOUTHCENTRAL MOUNTAINS

CITY           SKY/WX    TMP DP  RH WIND       PRES   REMARKS
RUIDOSO        FAIR      72  50  46 N8        30.38S

$$
NMZ527>531-231700-
NORTHEAST HIGHLANDS/NORTHEAST PLAINS

CITY           SKY/WX    TMP DP  RH WIND       PRES   REMARKS
LAS VEGAS      FAIR      64  54  69 VRB3      30.38F
RATON          FAIR      64  57  78 S9        30.34S
CLAYTON        CLOUDY    66  63  90 SE9       30.28S

$$
NMZ532>537-231700-
EASTCENTRAL PLAINS

CITY           SKY/WX    TMP DP  RH WIND       PRES   REMARKS
SANTA ROSA     PTSUNNY   70  61  73 E3        30.27S
TUCUMCARI      PTSUNNY   73  66  78 E7        30.22S
CANNON AFB     FAIR      74  73  97 E5        30.25S
CLOVIS AIRPORT CLOUDY    73  67  81 NE9       30.25S

$$
NMZ028-029-538-231700-
SOUTHEAST PLAINS

CITY           SKY/WX    TMP DP  RH WIND       PRES   REMARKS
ROSWELL        FAIR      76  66  71 NE8       30.21R
ARTESIA        FAIR      75  66  73 CALM      30.20S
CARLSBAD       FAIR      75  67  76 NW9       30.17F
HOBBS          PTSUNNY   73  64  73 NE8       30.21S


$$




USA.gov is the U.S. government's official web portal to all federal, state and local government web resources and services.